Elwood, MO

3:38 PM CDT on July 23, 2016 (GMT -0500)
Rosecrans Memorial

Weather History for KSTJ - December, 2011

Change the Weather History Date:

Wednesday, December 7, 2011

  Actual Average Record
Temperature  
Mean Temperature 26 °F 32 °F  
Max Temperature 39 °F 42 °F 64 °F (1991)
Min Temperature 13 °F 22 °F -3 °F (1917)
Degree Days  
Heating Degree Days 39 33  
Month to date heating degree days 246 223  
Since 1 July heating degree days 1208 1334  
Cooling Degree Days 0 0  
Month to date cooling degree days 0 0  
Year to date cooling degree days 494 1221  
Moisture  
Dew Point 18 °F    
Average Humidity 73    
Maximum Humidity 96    
Minimum Humidity 50    
Precipitation  
Precipitation 0.00 in 0.05 in 2.16 in (1980)
Month to date precipitation 1.20 0.32  
Year to date precipitation 19.01 34.40  
Sea Level Pressure  
Sea Level Pressure 30.20 in    
Wind  
Wind Speed 5 mph (SW)    
Max Wind Speed 13 mph    
Max Gust Speed 46 mph    
Visibility 10 miles    
Events      
T = Trace of Precipitation, MM = Missing Value Source: NWS Daily Summary

Daily Weather History Graph

Daily Weather History Graph

Search for Another Location

Airport or City:

Trip Planner

Search our weather history database for the weather conditions in past years. The results will help you decide how hot, cold, wet, or windy it might be!

Date:

Astronomy

Dec. 07, 2011 Rise Set
Actual Time 7:27 AM CST 4:54 PM CST
Civil Twilight 6:56 AM CST 5:25 PM CST
Nautical Twilight 6:23 AM CST 5:58 PM CST
Astronomical Twilight 5:50 AM CST 6:31 PM CST
Moon 2:56 PM CST (12/7) 4:43 AM CST (12/7)
Length of Visible Light 10h 28m
Length of Day
9h 27m
Waxing Gibbous, 92% of the Moon is Illuminated
Dec 7
Waxing Gibbous
Dec 10
Full
Dec 17
Last Quarter
Dec 24
New
Jan 1
First Quarter

Hourly Weather History & Observations

Time (CST) Temp. Windchill Dew Point Humidity Pressure Visibility Wind Dir Wind Speed Gust Speed Precip Events Conditions
12:53 AM 12.9 °F - 9.0 °F 84% 30.27 in 10.0 mi Calm Calm - N/A   Clear
1:53 AM 15.8 °F 10.2 °F 10.4 °F 79% 30.22 in 10.0 mi SW 3.5 mph - N/A   Clear
2:53 AM 14.0 °F 6.5 °F 12.0 °F 92% 30.26 in 9.0 mi South 4.6 mph - N/A   Clear
3:53 AM 15.1 °F 6.4 °F 12.0 °F 88% 30.23 in 10.0 mi SSW 5.8 mph - N/A   Clear
4:53 AM 16.0 °F 7.4 °F 12.0 °F 84% 30.21 in 10.0 mi SSW 5.8 mph - N/A   Clear
5:53 AM 17.1 °F 6.6 °F 12.0 °F 81% 30.19 in 10.0 mi South 8.1 mph - N/A   Clear
6:53 AM 17.1 °F 8.7 °F 12.9 °F 84% 30.18 in 10.0 mi South 5.8 mph - N/A   Clear
7:53 AM 19.0 °F 10.0 °F 14.0 °F 81% 30.18 in 10.0 mi SSW 6.9 mph - N/A   Clear
8:53 AM 21.9 °F 13.4 °F 17.1 °F 82% 30.19 in 10.0 mi SSW 6.9 mph - N/A   Clear
9:53 AM 26.1 °F 17.6 °F 19.9 °F 78% 30.19 in 10.0 mi SSW 8.1 mph - N/A   Clear
10:53 AM 30.0 °F 21.7 °F 19.9 °F 66% 30.19 in 10.0 mi WSW 9.2 mph - N/A   Clear
11:53 AM 33.1 °F 24.9 °F 19.9 °F 59% 30.17 in 10.0 mi SW 10.4 mph - N/A   Clear
12:53 PM 36.0 °F 29.0 °F 21.9 °F 57% 30.15 in 10.0 mi SW 9.2 mph - N/A   Clear
1:53 PM 37.0 °F 31.0 °F 21.9 °F 54% 30.14 in 10.0 mi SW 8.1 mph - N/A   Mostly Cloudy
2:53 PM 39.0 °F 34.0 °F 23.0 °F 53% 30.13 in 10.0 mi SW 6.9 mph - N/A   Clear
3:53 PM 39.0 °F 34.8 °F 24.1 °F 55% 30.15 in 10.0 mi WSW 5.8 mph - N/A   Clear
4:53 PM 35.1 °F 32.2 °F 24.1 °F 64% 30.17 in 10.0 mi West 3.5 mph - N/A   Clear
5:53 PM 30.0 °F 23.2 °F 23.0 °F 75% 30.19 in 10.0 mi NW 6.9 mph - N/A   Mostly Cloudy
6:53 PM 30.0 °F 26.5 °F 24.1 °F 79% 30.21 in 10.0 mi WNW 3.5 mph - N/A   Overcast
7:53 PM 26.1 °F 21.9 °F 21.9 °F 84% 30.21 in 10.0 mi North 3.5 mph - N/A   Clear
8:53 PM 25.0 °F 19.3 °F 21.0 °F 85% 30.21 in 10.0 mi NNW 4.6 mph - N/A   Clear
9:53 PM 26.1 °F - 21.9 °F 84% 30.22 in 10.0 mi Calm Calm - N/A   Clear
10:53 PM 23.0 °F - 21.0 °F 92% 30.22 in 10.0 mi Calm Calm - N/A   Clear
11:53 PM 21.9 °F - 19.9 °F 92% 30.23 in 10.0 mi Calm Calm - N/A   Clear